Location: Northcutt
(34.7304°N, 84.4305°W)
Time: 04:44:48
(UTC+00:00)

Vanguard 2 - Pass Details

Date: 10 October 2022
Orbit: 553 x 2933 km, 32.9° (Epoch: 05 December)

Event Time Altitude Azimuth Distance (km) Brightness Sun altitude
Rises 01:01:43 0° 272° (W) 6,471 13.7 -23.6°
Reaches altitude 10° 01:09:03 10° 252° (WSW) 5,692 12.7 -25.1°
Maximum altitude 01:16:54 15° 225° (SW) 5,353 12.1 -26.7°
Drops below altitude 10° 01:24:44 10° 198° (SSW) 5,614 11.9 -28.2°
Sets 01:32:03 0° 177° (S) 6,320 12.0 -29.7°
